www.pogodaiklimat.ru
ПОГОДА в Дельсбу
Время
(UTC), дата
20 27.07
19 27.07
21 27.07
22 27.07
23 27.07
00 28.07
02 28.07
01 28.07
03 28.07
04 28.07
05 28.07
06 28.07
08 28.07
07 28.07
09 28.07
10 28.07
11 28.07
12 28.07
14 28.07
13 28.07
15 28.07
16 28.07
17 28.07
18 28.07
20 28.07
19 28.07
21 28.07
22 28.07
23 28.07
00 29.07
02 29.07
01 29.07
03 29.07
04 29.07
05 29.07
06 29.07
09 29.07
11 29.07
10 29.07
12 29.07
13 29.07
14 29.07
15 29.07
17 29.07
16 29.07
18 29.07
19 29.07
20 29.07
21 29.07
23 29.07
22 29.07
00 30.07
01 30.07
02 30.07
03 30.07
05 30.07
04 30.07
06 30.07
07 30.07
08 30.07
09 30.07
11 30.07
10 30.07
12 30.07
13 30.07
14 30.07
15 30.07
17 30.07
16 30.07
18 30.07
19 30.07
20 30.07
21 30.07
23 30.07
22 30.07
00 31.07
01 31.07
02 31.07
03 31.07
05 31.07
04 31.07
06 31.07
07 31.07
08 31.07
09 31.07
11 31.07
10 31.07
12 31.07
13 31.07
14 31.07
15 31.07
17 31.07
16 31.07
18 31.07
19 31.07
20 31.07
21 31.07
23 31.07
22 31.07
00 1.08
01 1.08
02 1.08
03 1.08
05 1.08
04 1.08
06 1.08
07 1.08
08 1.08
09 1.08
11 1.08
10 1.08
12 1.08
13 1.08
14 1.08
15 1.08
17 1.08
16 1.08
18 1.08
19 1.08
20 1.08
21 1.08
23 1.08
22 1.08
00 2.08
01 2.08
02 2.08
03 2.08
05 2.08
04 2.08
06 2.08
07 2.08
08 2.08
09 2.08
11 2.08
10 2.08
12 2.08
13 2.08
14 2.08
15 2.08
17 2.08
16 2.08
18 2.08
19 2.08
20 2.08
21 2.08
23 2.08
22 2.08
00 3.08
01 3.08
02 3.08
03 3.08
05 3.08
04 3.08
06 3.08
07 3.08
08 3.08
09 3.08
11 3.08
10 3.08
12 3.08
13 3.08
14 3.08
15 3.08
17 3.08
18 3.08
19 3.08
Ветер
(напр.,м/с)
Видим. Явления Облачность Т
(С)
Тd
(С)
f
(%)
Тe
(С)
Тes
(С)
Комфортность P
(гПа)
Po
(гПа)
Тmin
(С)
Tmax
(С)
R
(мм)
R24
(мм)
S
(см)
штиль 0
{2}
50 км ясно +15.4 +9.1 66 +15 +15 1012.8 1004.2
ЮВ 1
{2}
50 км ясно +17.8 +10.4 62 +19 +19 1012.5 1004.1
штиль 0
{2}
40 км ясно +13.2 +8.7 74 +13 +13 1012.8 1004.2
З 1
{2}
45 км ясно +12.0 +8.7 80 +12 +12 1013.0 1004.3
штиль 0
{2}
30 км 4/3 2000 м
[]
+11.2 +8.0 81 +11 +11 1013.0 1004.3
З 1
{1}
23 км 5/0
[]
+10.8 +8.3 85 +10 +10 1012.7 1004.0
З 1
{2}
13 км ясно +8.8 +6.5 85 +8 +8 1012.2 1003.4
З 1
{1}
14 км 1/0
[]
+9.9 +7.6 86 +9 +9 1012.4 1003.7
штиль 0
{2}
12 км 3/3 2000 м
[]
+8.8 +6.6 86 +8 +8 1011.8 1003.1
штиль 0
{2}
24 км 10/8 2000 м
[]
+10.3 +7.3 82 +10 +10 1011.6 1002.9
штиль 0
{1}
30 км 8/0
[]
+13.4 +9.7 78 +13 +15 1011.0 1002.4
штиль 0
{1}
40 км 1/0
[]
+14.0 +9.8 76 +14 +18 1010.5 1001.9 +7.7
В 1
{4}
30 км 3/0
[]
+17.9 +12.7 72 +19 +27 1009.6 1001.2
штиль 0
{2}
30 км 3/1
[]
+16.0 +11.5 75 +16 +22 1010.1 1001.6
В 4
{7}
29 км ясно +19.7 +12.0 61 +21 +28 комфорт 1009.1 1000.8
В 4
{8}
40 км ясно +19.8 +12.5 63 +21 +29 комфорт 1008.5 1000.1
ЮВ 5
{9}
35 км 1/0
[]
+19.9 +11.3 58 +21 +27 комфорт 1007.9 999.5
ЮВ 5
{9}
30 км 1/0
[]
+18.4 +11.0 62 +18 +24 1007.6 999.2
В 3
{8}
40 км 3/3 1020 м
[]
+18.4 +11.7 65 +19 +23 1006.9 998.5
В 4
{8}
35 км 10/0
[]
+18.6 +11.7 64 +19 +22 1007.4 999.0
В 4
{8}
30 км 4/3 2000 м
[]
+17.6 +12.2 71 +17 +20 1006.6 998.2
В 3
{7}
35 км 5/1 630 м
[]
+16.6 +12.6 77 +16 +18 1006.3 997.8
В 3
{6}
27 км 9/3 500 м
[]
+16.3 +12.8 80 +16 +16 1005.9 997.4
В 2
{6}
29 км слаб. ливневой дождь {метель} 10/10 1470 м
[]
+15.9 +12.4 80 +16 +16 1005.4 997.0 +21.4 0.0
В 2
{4}
8000 м слаб. ливневой дождь {метель} 6/6 450 м
[]
+15.1 +13.0 87 +15 +15 1004.8 996.3 0.2
В 2
{5}
19 км слаб. ливневой дождь {метель} 10/10 450 м
[]
+15.4 +12.6 83 +15 +15 1005.0 996.5 0.0
В 2
{5}
29 км слаб. дождь ?/? +14.6 +11.9 84 +14 +14 1004.1 995.6 0.7
В 1
{5}
6000 м ливневой дождь ?/? +14.2 +12.0 87 +15 +15 1003.4 994.9 1
В 2
{6}
6000 м сильн. дождь {ливн. дождь} ?/? +13.4 +11.4 88 +13 +13 1002.6 994.1 5
В 2
{4}
16 км слаб. ливневой дождь ?/? +13.6 +11.5 87 +13 +13 1002.2 993.7 0.3
В 2
{6}
6000 м сильн. ливневой дождь {морось} ?/? +14.5 +12.9 90 +14 +14 1000.8 992.3 6
В 2
{5}
9000 м морось {ливн. дождь} ?/? +14.0 +12.2 89 +13 +13 1001.4 993.0 0.7
В 2
{6}
11 км дождь {ливн. дождь} ?/? +14.6 +12.9 90 +14 +14 1000.2 991.8 3
ЮВ 2
{5}
3300 м сильн. дождь {ливн. дождь} ?/? +14.4 +12.6 89 +14 +14 1000.3 991.8 11
З 2
{6}
40 км слаб. дождь ?/? +13.5 +11.1 85 +13 +13 1000.4 992.0 2
З 2
{6}
35 км в посл. час дождь {ливн. дождь} 6/0
[]
+14.2 +10.2 77 +14 +16 1000.8 992.3 +13.3 0.0
З 3
{8}
40 км 3/0
[]
+16.5 +8.5 59 +16 +23 1001.4 993.0
ЮЗ 2
{7}
35 км 5/1 1500 м
[]
+19.0 +9.2 53 +20 +28 1001.3 993.0
ЮЗ 3
{8}
26 км 3/1 1230 м
[]
+18.4 +8.6 53 +19 +26 1001.4 993.0
ЮЗ 2
{9}
35 км 8/8 1500 м
[]
+18.9 +8.8 52 +20 +22 1001.5 993.2
ЮЗ 2
{7}
40 км 8/8 1500 м
[]
+18.0 +8.6 54 +19 +20 1001.6 993.3
З 1
{6}
40 км 5/4 1410 м
[]
+18.4 +9.5 56 +20 +25 1001.4 993.1
ЮЗ 2
{4}
45 км 9/9 1500 м
[]
+18.5 +8.0 50 +19 +20 1001.4 993.1
Ю 1
{3}
45 км 8/8 2000 м
[]
+17.8 +9.9 60 +19 +19 1001.3 993.0
Ю 1
{3}
40 км 10/9 2000 м
[]
+18.4 +10.0 58 +20 +20 1001.4 993.1
Ю 1
{3}
45 км 10/9 2000 м
[]
+17.3 +10.1 63 +18 +18 1001.2 992.8 +14.1 +19.6
ЮЗ 1
{4}
50 км 9/8
[]
+16.6 +9.6 63 +18 +18 1001.2 992.8
штиль 0
{3}
50 км 10/0
[]
+14.4 +8.7 69 +14 +14 1001.5 993.0
штиль 0
{2}
50 км ясно +11.6 +8.6 82 +11 +11 1001.7 993.1
штиль 0
{1}
45 км 10/10
[]
+11.3 +8.7 84 +11 +11 1001.5 993.0
штиль 0
{2}
28 км 6/0
[]
+11.2 +8.7 85 +11 +11 1001.7 993.1
штиль 0
{1}
45 км 10/10
[]
+11.5 +8.8 83 +11 +11 1001.5 993.0
З 1
{1}
50 км 9/0
[]
+10.8 +8.4 85 +10 +10 1001.5 992.9
штиль 0
{1}
40 км ясно +10.1 +7.5 84 +9 +9 1001.3 992.7
штиль 0
{1}
20 км ясно +9.2 +6.1 81 +8 +9 1001.3 992.6
штиль 0
{2}
45 км {дымка} ясно +12.0 +9.0 82 +11 +14 1001.1 992.6
штиль 0
{1}
35 км {дымка} ясно +10.1 +7.8 86 +9 +10 1001.2 992.6
З 1
{3}
35 км {дымка} 3/3
[]
+13.6 +9.7 77 +14 +17 1001.3 992.8 +9.1 +17.5
З 2
{5}
45 км 10/0
[]
+14.6 +10.5 76 +14 +17 1001.1 992.6
З 2
{5}
20 км слаб. дождь 1/1 330 м
[]
+15.0 +11.1 77 +15 +22 1001.2 992.7 0.0
З 2
{5}
13 км дождь 1/1 330 м
[]
+14.7 +12.1 84 +14 +23 1000.6 992.1 0.9
СЗ 2
{9}
6000 м сильн. дождь ?/? +14.7 +12.5 87 +14 +14 1000.0 991.5 2
З 4
{8}
15 км дождь ?/? +14.7 +12.5 87 +13 +13 1000.1 991.7 2
СЗ 3
{8}
8000 м сильн. дождь ?/? +15.6 +13.3 86 +15 +15 1000.1 991.7 1
СЗ 2
{8}
9000 м дождь 1/1 90 м
[]
+15.8 +13.5 86 +16 +24 1000.7 992.2 1
С 2
{7}
7000 м дождь ?/? +15.4 +13.2 87 +15 +15 1001.4 992.9 2
СЗ 2
{7}
45 км в посл. час дождь {метель} 1/0
[]
+15.5 +13.0 85 +15 +20 1001.8 993.4 0.2
СЗ 2
{6}
45 км {ливн. дождь, дождь} 5/4 1000 м
[]
+15.8 +12.9 83 +16 +17 1002.7 994.2
СЗ 3
{7}
50 км в посл. час дождь {ливн. дождь} 6/1 1260 м
[]
+16.0 +13.2 83 +16 +17 1002.0 993.6 0.0
С 3
{7}
40 км {ливн. дождь, дождь} 10/8 1500 м
[]
+16.3 +12.7 79 +16 +16 1003.2 994.7 +16.3
С 5
{12}
14 км слаб. ливневой дождь 8/3 330 м
[]
+14.6 +12.2 86 +13 +13 1005.5 997.0 0.0
С 3
{8}
50 км в посл. час дождь {ливн. дождь} 8/1 1200 м
[]
+13.6 +10.9 84 +12 +12 1007.2 998.6 0.0
СЗ 1
{7}
40 км {ливн. дождь, дождь} 4/0
[]
+11.7 +8.9 83 +12 +12 1008.7 1000.0
З 1
{3}
50 км {ливн. дождь, дождь} 4/4 660 м
[]
+11.5 +8.9 84 +11 +11 1010.5 1001.9
С 1
{5}
50 км {ливн. дождь, дождь} 10/10 570 м
[]
+12.3 +9.4 82 +12 +12 1009.8 1001.2
С 1
{3}
50 км {ливн. дождь, дождь} ясно +11.1 +8.5 84 +11 +11 1011.1 1002.5
штиль 0
{3}
45 км ясно +10.9 +7.8 81 +10 +10 1012.0 1003.3
З 1
{4}
50 км ясно +10.8 +7.4 80 +11 +11 1012.8 1004.1
ЮЗ 1
{2}
50 км 10/5
[]
+11.1 +8.3 83 +11 +11 1013.0 1004.3
З 1
{3}
45 км 8/5 450 м
[]
+14.3 +10.3 77 +15 +15 1013.8 1005.3
СЗ 1
{3}
50 км 8/3 2000 м
[]
+12.5 +9.4 81 +13 +13 1013.1 1004.5
З 1
{3}
45 км 10/10 480 м
[]
+14.6 +11.2 80 +15 +15 1014.3 1005.7 +10.2 +16.3
СЗ 1
{2}
50 км 10/10 480 м
[]
+15.5 +11.7 78 +16 +16 1014.9 1006.4
С 1
{4}
30 км 10/8 450 м
[]
+16.4 +12.9 80 +17 +18 1015.5 1007.0
С 1
{4}
45 км 9/8 840 м
[]
+17.6 +12.5 72 +19 +20 1016.2 1007.7
ЮЗ 1
{3}
30 км 10/10 840 м
[]
+20.3 +12.2 60 +23 +23 комфорт 1016.7 1008.3
З 1
{3}
30 км 6/6 1170 м
[]
+20.3 +14.1 68 +24 +29 комфорт 1016.6 1008.2
З 1
{3}
35 км 4/3 960 м
[]
+20.1 +12.4 61 +23 +31 комфорт 1017.0 1008.6
СЗ 1
{3}
35 км 1/1
[]
+20.1 +12.6 62 +23 +33 комфорт 1017.0 1008.6
З 2
{5}
30 км 1/1
[]
+21.7 +13.2 58 +24 +31 комфорт 1016.8 1008.4
СЗ 1
{4}
40 км 1/0
[]
+20.4 +12.4 60 +24 +29 комфорт 1016.8 1008.4
З 1
{3}
40 км ясно +23.1 +11.8 49 +26 +27 жарко 1016.8 1008.5
З 1
{3}
35 км ясно +22.8 +11.5 49 +25 +29 комфорт 1016.8 1008.4
ЮЗ 1
{2}
45 км ясно +21.5 +12.0 55 +24 +24 комфорт 1016.8 1008.5 +14.6 +23.4
З 1
{2}
50 км ясно +18.7 +12.3 66 +21 +21 комфорт 1017.1 1008.6
З 2
{3}
45 км ясно +17.0 +12.2 73 +17 +17 1017.4 1008.8
З 1
{3}
45 км 1/0
[]
+15.8 +11.7 77 +17 +17 1017.7 1009.1
З 1
{2}
40 км ясно +13.9 +10.2 78 +14 +14 1018.1 1009.5
штиль 0
{3}
45 км 4/0
[]
+14.8 +10.7 76 +15 +15 1017.9 1009.3
штиль 0
{2}
9000 м ясно +12.3 +9.4 82 +12 +12 1018.4 1009.7
штиль 0
{1}
4900 м дымка ясно +11.0 +8.7 86 +10 +10 1018.7 1010.0
штиль 0
{1}
7000 м дымка ясно +10.9 +8.7 86 +10 +10 1018.6 1009.9
З 1
{2}
5000 м дымка ясно +10.3 +8.1 86 +10 +10 1018.4 1009.6
штиль 0
{1}
35 км {дымка} ясно +15.0 +11.1 77 +15 +17 1018.1 1009.5
штиль 0
{2}
23 км {дымка} ясно +11.5 +8.9 84 +11 +12 1018.3 1009.6
штиль 0
{1}
29 км {дымка} ясно +17.0 +11.6 70 +17 +21 1017.9 1009.4 +10.0
З 1
{2}
30 км ясно +19.6 +12.2 62 +22 +29 комфорт 1017.4 1009.0
З 1
{2}
30 км ясно +22.1 +12.4 54 +25 +34 комфорт 1017.2 1008.8
СВ 1
{3}
30 км ясно +22.8 +14.0 58 +26 +37 жарко 1016.9 1008.6
З 1
{3}
30 км ясно +24.9 +13.4 49 +27 +40 жарко 1015.9 1007.6
ЮЗ 1
{4}
29 км ясно +24.5 +10.4 41 +26 +38 жарко 1016.4 1008.2
ЮВ 2
{4}
30 км ясно +25.3 +10.5 39 +26 +37 жарко 1015.3 1007.1
ЮВ 2
{4}
35 км 6/0
[]
+25.2 +12.4 45 +27 +33 жарко 1014.9 1006.6
ЮВ 3
{6}
29 км ясно +25.0 +14.5 52 +28 +34 жарко 1014.3 1006.0
В 2
{4}
45 км ясно +24.6 +13.7 51 +27 +32 жарко 1013.8 1005.5
СВ 1
{2}
45 км ясно +21.6 +15.4 68 +25 +27 комфорт 1012.9 1004.6
В 1
{4}
40 км 1/0
[]
+23.2 +13.7 55 +27 +30 душно 1013.3 1005.0
С 1
{1}
35 км ясно +20.4 +14.7 70 +24 +25 комфорт 1012.4 1004.1 +26.0
СВ 1
{1}
40 км ясно +19.5 +14.2 71 +22 +22 комфорт 1012.1 1003.7
СВ 1
{1}
40 км ясно +18.1 +13.9 76 +19 +19 1011.9 1003.5
штиль 0
{2}
18 км 4/0
[]
+16.3 +12.7 79 +16 +16 1011.6 1003.1
штиль 0
{1}
9000 м 5/0
[]
+14.4 +11.6 83 +14 +14 1010.8 1002.2
штиль 0
{1}
17 км 4/0
[]
+15.1 +11.9 81 +15 +15 1011.2 1002.7
штиль 0
{2}
7000 м дымка ясно +13.7 +11.1 84 +13 +13 1010.3 1001.8
штиль 0
{1}
9000 м дымка 3/0
[]
+13.6 +10.8 83 +13 +13 1009.8 1001.2
штиль 0
{1}
9000 м дымка 1/0
[]
+13.5 +10.9 84 +13 +13 1009.5 1001.0
штиль 0
{1}
3100 м дымка ясно +12.7 +10.2 85 +12 +12 1009.2 1000.6
штиль 0
{1}
24 км {дымка} 1/0
[]
+14.8 +12.7 87 +14 +16 1008.4 999.9
штиль 0
{1}
12 км {дымка} ясно +12.9 +10.9 88 +12 +13 1008.8 1000.3
штиль 0
{1}
35 км {дымка} ясно +19.9 +13.4 66 +22 +26 комфорт 1008.0 999.6 +12.2 +20.4
ЮЗ 2
{5}
35 км 1/0
[]
+21.7 +12.0 54 +24 +29 комфорт 1007.4 999.1
З 2
{5}
40 км ясно +23.0 +12.5 52 +26 +33 жарко 1007.0 998.7
З 3
{7}
35 км 1/1 1500 м
[]
+23.0 +12.6 52 +26 +33 жарко 1006.6 998.3
З 1
{8}
40 км 5/5 1350 м
[]
+24.0 +14.1 54 +26 +33 жарко 1005.6 997.4
ЮЗ 3
{6}
35 км 1/0
[]
+23.0 +13.0 53 +26 +34 жарко 1006.2 997.9
ЮЗ 2
{7}
45 км 3/0
[]
+24.9 +12.3 45 +27 +36 жарко 1005.2 997.0
ЮЗ 1
{5}
50 км 4/3 2000 м
[]
+24.7 +12.5 47 +27 +34 жарко 1004.8 996.6
ЮЗ 2
{5}
35 км 1/0
[]
+25.8 +12.0 42 +27 +34 жарко 1004.2 996.0
Ю 2
{6}
40 км 6/6
[]
+24.6 +11.5 44 +26 +28 жарко 1003.8 995.6
Ю 1
{3}
50 км 10/8 1500 м
[]
+22.3 +13.7 58 +25 +26 комфорт 1003.2 995.0
ЮВ 1
{4}
50 км 3/3
[]
+23.7 +13.4 52 +26 +28 жарко 1003.3 995.1
СВ 1
{6}
50 км 10/5 1500 м
[]
+21.4 +12.0 55 +24 +24 комфорт 1003.3 995.1 +26.0
СВ 1
{2}
40 км в посл. час дождь {ливн. дождь} 4/4 2000 м
[]
+18.8 +13.9 73 +21 +21 комфорт 1003.3 995.0 0.0
В 1
{3}
30 км {ливн. дождь, дождь} 10/0
[]
+17.6 +13.5 77 +19 +19 1003.5 995.1
В 1
{3}
27 км {ливн. дождь, дождь} 5/5 1260 м
[]
+16.3 +12.9 80 +17 +17 1003.3 994.9
ЮВ 1
{2}
12 км {ливн. дождь, дождь} 10/10 210 м
[]
+15.6 +13.1 85 +16 +16 1003.2 994.8
штиль 0
{3}
16 км {ливн. дождь, дождь} 10/10 240 м
[]
+15.6 +12.1 80 +15 +15 1003.5 995.0
штиль 0
{2}
11 км в посл. час дождь {ливн. дождь} 10/8 180 м
[]
+15.5 +12.3 81 +15 +15 1002.9 994.5 0.0
ЮВ 1
{2}
12 км 10/10 180 м
[]
+15.5 +13.0 85 +16 +16 1002.5 994.1
ЮВ 1
{1}
7000 м слаб. дождь 10/10 180 м
[]
+15.4 +12.8 84 +16 +16 1002.3 993.9 0.1
В 1
{3}
2700 м сильн. ливневой дождь 10/1 60 м
[]
+15.1 +13.2 88 +16 +16 1002.0 993.6 6
ЮВ 1
{1}
10 км в посл. час дождь {ливн. дождь} 10/10 240 м
[]
+15.5 +13.1 86 +16 +16 1001.5 993.0 0.0
В 1
{2}
6000 м слаб. ливневой дождь ?/? +15.1 +12.9 87 +16 +16 1001.8 993.3 0.1
штиль 0
{2}
15 км {ливн. дождь, дождь} 10/10 750 м
[]
+16.7 +13.6 82 +17 +17 1001.3 992.9 +15.0
З 2
{5}
45 км 6/5 960 м
[]
+17.5 +12.5 72 +18 +20 1001.4 993.0
З 2
{4}
40 км 9/8 1020 м
[]
+18.2 +12.2 68 +19 +20 1001.1 992.7
Ю 2
{6}
35 км 9/5 1000 м
[]
+19.1 +11.4 61 +21 +23 комфорт 1001.1 992.8
ЮЗ 3
{7}
40 км 3/1 1320 м
[]
+20.1 +11.2 57 +22 +29 комфорт 1001.3 993.0
ЮЗ 2
{5}
40 км 3/3 1050 м
[]
+20.0 +10.8 55 +22 +29 комфорт 1001.0 992.7
ЮЗ 3
{8}
30 км 1/1 1440 м
[]
+21.0 +8.9 46 +23 +31 комфорт 1001.2 992.9
ЮЗ 4
{7}
35 км 1/0
[]
+21.7 +9.4 45 +23 +29 комфорт 1000.9 992.7
ЮЗ 2
{8}
30 км 1/1 2000 м
[]
+22.4 +9.2 43 +24 +30 комфорт 1000.7 992.5
ЮЗ 3
{6}
45 км 4/4 1500 м
[]
+20.7 +9.2 48 +23 +25 комфорт 1001.0 992.7
ЮЗ 3
{7}
50 км 5/5 1500 м
[]
+18.9 +7.7 48 +20 +20 1001.6 993.3
ЮЗ 3
{7}
50 км 6/5 2000 м
[]
+17.9 +7.7 51 +18 +18 1001.7 993.4 +16.7 +23.0
ЮЗ 2
{8}
50 км 10/5 2000 м
[]
+17.1 +7.7 54 +17 +17 1002.2 993.8
Местоположение метеостанции Дельсбу (Швеция): широта 61.83 долгота 16.55 высота над уровнем моря 72 м.
В архиве по умолчанию представлена погода в Дельсбу за последнюю неделю. Архивные данные за месяц целиком и за предыдущие месяцы, начиная с января 2011 года, Вы можете получить, выбрав интересующий диапазон дат из раскрывающегося списка и нажав кнопку "Найти!".
*Определитесь, кто Вы:
Внимание! Время в таблицах - всемирное. Для получения местного времени необходимо прибавить поправку, которая равна 1 ч.
Смотрите также архив погоды в соседних городах и на ближайших метеорологических станциях:
Партнеры нашего сайта:      
Пояснения к столбцам:
  • Ветер - указаны скорость ветра в м/с - средняя за 10 мин, порывы в срок и между сроками (в фигурных скобках) и направление, откуда дует ветер: С - северный,
  • СВ - северо-восточный, В - восточный, ЮВ - юго-восточный, Ю - южный, ЮЗ - юго-западный, З - западный, СЗ - северо-западный.
  • Видимость - горизонтальная дальность видимости в метрах или километрах. При видимости от 1 до 10 км при отсутствии осадков обычно наблюдается дымка, при ухудшении видимости до 1 км и менее - туман. В сухую погоду видимость может ухудшаться дымом, пылью или мглою.
  • Явления - указаны атмосферные явления, наблюдавшиеся в срок или в последний час перед сроком; фигурными скобками обозначены явления, наблюдавшиеся между сроками (за 1-3 часа до срока); квадратными скобками обозначены град или гололедные отложения с указанием их диаметра в мм.
  • Облачность - указаны через наклонную черту общая и нижняя облачность в баллах и высота нижней границы облаков в метрах; квадратными скобками обозначены формы облаков: Ci - перистые, Cs - перисто-слоистые, Cc - перисто-кучевые, Ac - высококучевые, As - высокослоистые, Sc - слоисто-кучевые, Ns - слоисто-дождевые, Cu - кучевые, Cb - кучево-дождевые. Подробнее классификацию облаков см. в Атласе облаков (PDF).
  • T - Температура воздуха - температура, измеренная на высоте 2 м над землей.
  • Td - Температура точки росы - температура, при понижении до которой содержащийся в воздухе водяной пар достигнет насыщения.
  • f - Относительная влажность воздуха - влажноcть воздуха, измеренная на высоте 2 м над землей.
  • Te - Эффективная температура - температура, которую ощущает одетый по сезону человек в тени. Характеристика душности погоды. При расчете учитывается влияние влажности воздуха и скорости ветра на теплоощущения человека.
  • Tes - Эффективная температура на солнце - температура, которую ощущает человек, с поправкой на солнечный нагрев. Характеристика знойности погоды. Зависит от высоты солнца над горизонтом, облачности и скорости ветра. Ночью, в пасмурную погоду, а также при ветре 12 м/с и более поправка равна нулю.
  • P - Атмосферное давление - приведенное к уровню моря атмосферное давление.
  • Po - Атмосферное давление - измеренное на уровне метеостанции атмосферное давление.
  • Tmin - Минимальная температура - минимум температуры воздуха на высоте 2 м над землей.
  • Tmax - Максимальная температура - максимум температуры воздуха на высоте 2 м над землей.
  • R - Количество осадков - Количество выпавших осадков за период времени, мм. При наведении курсора мыши на число - период времени, за который выпало указанное количество осадков.
  • R24 - Количество осадков - Количество выпавших осадков за 24 часа, мм.
  • S - Снежный покров - Высота снежного покрова, см. При наведении курсора мыши на число - состояние снежного покрова и степень покрытия местности в баллах.